TimeMDT,TemperatureF,Dew PointF,Humidity,Sea Level PressureIn,VisibilityMPH,Wind Direction,Wind SpeedMPH,Gust SpeedMPH,PrecipitationIn,Events,Conditions,WindDirDegrees,DateUTC
12:53 AM,64.9,60.1,84,29.89,10.0,Calm,Calm,-,N/A,,Clear,0,2013-07-08 06:53:00
1:53 AM,63.0,59.0,87,29.90,10.0,SE,5.8,-,N/A,,Clear,140,2013-07-08 07:53:00
2:53 AM,62.1,57.0,84,29.89,10.0,ENE,8.1,-,N/A,,Clear,70,2013-07-08 08:53:00
3:53 AM,63.0,55.9,78,29.91,10.0,East,8.1,-,N/A,,Clear,80,2013-07-08 09:53:00
4:53 AM,62.1,55.0,78,29.92,10.0,East,4.6,-,N/A,,Clear,80,2013-07-08 10:53:00
5:53 AM,61.0,55.9,83,29.94,10.0,SSW,3.5,-,N/A,,Clear,210,2013-07-08 11:53:00
6:53 AM,63.0,55.9,78,29.97,10.0,ENE,4.6,-,N/A,,Clear,70,2013-07-08 12:53:00
7:53 AM,70.0,57.0,63,29.96,10.0,ENE,3.5,-,N/A,,Clear,60,2013-07-08 13:53:00
8:53 AM,72.0,55.9,57,29.99,10.0,West,3.5,-,N/A,,Clear,260,2013-07-08 14:53:00
9:53 AM,75.0,55.9,51,29.99,10.0,WSW,4.6,-,N/A,,Clear,250,2013-07-08 15:53:00
10:53 AM,79.0,53.1,40,29.99,10.0,Calm,Calm,-,N/A,,Partly Cloudy,0,2013-07-08 16:53:00
11:53 AM,82.9,53.1,36,29.98,10.0,Calm,Calm,-,N/A,,Partly Cloudy,0,2013-07-08 17:53:00
12:53 PM,89.1,50.0,26,29.94,10.0,West,8.1,-,N/A,,Scattered Clouds,270,2013-07-08 18:53:00
1:53 PM,91.0,48.9,23,29.91,10.0,WNW,9.2,-,N/A,,Scattered Clouds,290,2013-07-08 19:53:00
2:53 PM,93.0,43.0,18,29.88,10.0,Calm,Calm,-,N/A,,Scattered Clouds,0,2013-07-08 20:53:00
3:53 PM,95.0,33.1,11,29.86,10.0,WNW,13.8,21.9,N/A,,Scattered Clouds,290,2013-07-08 21:53:00
4:53 PM,95.0,34.0,12,29.83,10.0,Variable,5.8,17.3,N/A,,Scattered Clouds,0,2013-07-08 22:53:00
5:53 PM,95.0,34.0,12,29.83,10.0,West,9.2,-,N/A,,Clear,280,2013-07-08 23:53:00
6:53 PM,91.0,37.0,15,29.83,10.0,WNW,6.9,-,N/A,,Scattered Clouds,290,2013-07-09 00:53:00
7:53 PM,89.1,39.0,17,29.82,10.0,WNW,6.9,-,N/A,,Clear,290,2013-07-09 01:53:00
8:53 PM,84.0,41.0,22,29.85,10.0,Calm,Calm,-,N/A,,Clear,0,2013-07-09 02:53:00
9:53 PM,84.0,39.0,20,29.87,10.0,North,9.2,-,N/A,,Clear,350,2013-07-09 03:53:00
10:53 PM,82.0,39.0,22,29.87,10.0,NW,4.6,-,N/A,,Clear,310,2013-07-09 04:53:00
11:53 PM,80.1,39.9,24,29.88,10.0,East,4.6,-,N/A,,Clear,90,2013-07-09 05:53:00